Location: Borderline Observatory
(42.7345°N, 72.8696°W)
Time: 09:34:41
(UTC-04:00)

Daily predictions for brighter satellites

Satellite Brightness Start Highest point End
(mag) Time Altitude Azimuth Time Altitude Azimuth Time Altitude Azimuth
SeaSat 1 2.5 19:28:30 10° SE 19:33:22 66° ENE 19:38:17 10° NNW
Cosmos 1378 3.1 19:30:41 10° N 19:34:25 63° E 19:38:08 10° SSE
Cosmos 1833 Rocket 4.1 19:30:21 10° N 19:34:31 21° NE 19:38:41 10° E
SL-27 R/B 2.7 19:33:33 10° N 19:37:04 49° ENE 19:40:34 10° SE
SJ-6B 2.6 19:33:27 10° SSE 19:37:10 76° ENE 19:40:55 10° N
Cosmos 1821 Rocket 4.1 19:31:11 10° S 19:37:32 70° E 19:43:50 10° NNE
Cosmos 1812 Rocket 3.6 19:34:05 10° S 19:38:25 59° E 19:42:45 10° NNE
Cosmos 1818 4.4 19:33:55 10° NNW 19:38:52 34° NE 19:43:47 10° ESE
Cosmos 2278 Rocket 2.5 19:33:56 10° S 19:39:17 45° ESE 19:44:40 10° NE
FENGYUN 3A 3.7 19:35:33 10° SSE 19:40:54 66° ENE 19:46:16 10° N
Cosmos 2228 4.5 19:39:15 10° SSW 19:43:17 43° WNW 19:47:21 10° N
USA 186 3.1 19:43:36 10° E 19:44:29 12° ENE 19:45:21 10° NE
BREEZE-M DEB (TANK) 4.0 19:43:11 10° NW 19:45:07 19° N 19:46:57 10° NE
COSMOS 2487 4.4 19:45:44 10° NNE 19:47:48 14° ENE 19:49:42 11° E
Cosmos 2298 Rocket 4.3 19:43:06 10° SSW 19:48:23 75° WNW 19:53:44 10° NNE
Meteor 1-4 Rocket 3.8 19:48:06 10° SE 19:50:40 20° E 19:53:15 10° NE
Helios 1B rocket 3.7 19:47:34 10° NE 19:50:41 20° E 19:53:46 10° SE
Resurs 01 Rocket 1.7 19:47:03 10° SSE 19:51:21 55° ENE 19:55:41 10° N
FengYun 1-2 T 4.2 19:46:12 10° SSE 19:51:45 77° ENE 19:57:23 10° N
ATLAS 5 CENTAUR R/B 3.3 19:52:41 10° SE 19:55:07 14° ESE 19:57:37 10° ENE
Cosmos 1605 Rocket 4.2 19:49:33 10° SSE 19:55:35 53° E 20:01:44 10° NNE
Cosmos 1544 3.8 19:53:29 10° SSE 19:56:45 32° E 20:00:02 10° NNE
H-2A R/B 2.7 19:55:43 10° SSE 19:59:34 67° ENE 20:03:30 10° N
Lacrosse 4 Rocket 2.7 19:55:54 10° SW 19:59:46 42° NW 20:03:39 10° NNE
Cosmos 1758 4.0 19:56:45 10° SSE 20:00:17 32° E 20:03:51 10° NNE
Helios 1A 3.7 19:57:29 10° SE 20:01:12 33° ENE 20:04:58 10° N
Meteor 1-24 Rocket 3.8 19:57:39 10° NNW 20:03:09 81° W 20:08:49 10° S
Cosmos 2123 Rocket 4.0 20:01:56 10° N 20:08:17 84° E 20:14:35 10° S
Cosmos 2082 Rocket 2.8 20:03:09 10° N 20:08:28 39° ENE 20:12:41 15° ESE
Cosmos 1953 2.8 20:05:18 10° SSE 20:09:03 37° E 20:12:48 10° NNE
Cosmos-2242 4.2 20:07:20 12° SE 20:10:10 22° E 20:13:25 10° NE
Cosmos 1939 Rocket 4.2 20:10:56 18° ESE 20:12:43 23° ENE 20:16:01 10° NNE
ALOS 3.1 20:10:39 10° S 20:15:13 55° W 20:19:49 10° NNW
Cosmos 1867 4.0 20:10:25 10° S 20:15:22 37° ESE 20:20:22 10° NE
USA 215 3.8 20:10:02 10° ENE 20:15:57 35° SE 20:21:49 10° SSW
Cosmos 158 Rocket 4.5 20:16:54 10° N 20:21:43 41° ENE 20:24:49 20° ESE
Cosmos 1766 4.2 20:21:30 10° SSW 20:25:15 49° W 20:29:04 10° N
Spot 2 Rocket 3.7 20:20:17 10° S 20:25:22 74° WSW 20:30:30 10° NNW
Cosmos 1271 Rocket 3.7 20:25:41 25° ESE 20:26:31 28° E 20:29:58 10° NNE
Lacrosse 5 rocket 2.6 20:26:11 10° NNW 20:29:32 25° NNE 20:30:54 21° ENE
Timation 2 Rocket 4.2 20:25:18 10° NNW 20:31:30 50° ENE 20:35:07 23° ESE
CZ-4B DEB 2.9 20:31:09 38° ESE 20:31:49 46° ENE 20:34:49 10° N
Resurs 1-3 4.1 20:29:57 10° S 20:34:16 60° W 20:38:37 10° NNW
Spot 1 4.2 20:32:27 10° SSE 20:37:04 85° ENE 20:42:00 10° NNW
RESURS DK-1 4.2 20:36:49 10° NW 20:40:26 30° WSW 20:44:03 10° S
CZ-4B DEB 4.4 20:38:48 27° SSE 20:40:38 75° ENE 20:44:14 10° N
BREEZE-M DEB (TANK) 3.3 20:38:33 10° WSW 20:41:34 87° NNW 20:50:33 10° ENE
Envisat 3.0 20:40:01 21° SSE 20:43:22 62° ENE 20:48:24 10° N
H-2A R/B 4.1 20:43:27 12° ENE 20:43:27 12° ENE 20:45:22 10° NE
Cosmos 1674 2.5 20:42:21 10° N 20:46:07 68° E 20:47:22 39° SSE
Cosmos 1447 Rocket 4.4 20:40:44 10° N 20:46:54 87° W 20:53:03 10° S
Cosmos 1408 Rocket 3.5 20:43:26 10° N 20:47:55 75° E 20:50:27 25° SSE
USA 267 4.2 20:45:27 19° ENE 20:49:24 35° NNE 20:55:12 10° NW
Meteor 1-21 Rocket 4.3 20:44:04 10° N 20:49:55 87° W 20:55:49 10° S
Lacrosse 5 2.7 20:45:41 10° WSW 20:50:36 50° NW 20:55:33 10° NE
Cosmos 1459 Rocket 4.0 20:45:06 10° S 20:51:12 57° E 20:57:15 10° NNE
Cosmos 1125 Rocket 3.4 20:46:28 10° SSW 20:51:40 88° WNW 20:56:55 10° NNE
Cosmos 2344 4.3 20:45:59 10° SW 20:53:32 58° NW 21:02:19 10° NNE
BREEZE-M DEB (TANK) 3.5 20:50:55 10° SW 20:54:26 52° SE 21:05:54 10° ENE
Cosmos 1048 Rocket 3.9 20:49:40 10° NNW 20:54:50 87° WSW 20:57:43 27° SSE
Cosmos 2173 Rocket 3.9 20:49:39 10° S 20:55:41 61° E 21:01:51 10° NNE
Geosat 4.4 20:51:21 10° NNE 20:56:21 66° WNW 21:01:19 10° SW
SPOT 5 4.1 20:56:29 27° ENE 20:56:41 27° ENE 21:01:06 10° N
Timation 1 Rocket 4.5 20:51:54 10° SSW 20:57:54 78° WNW 21:03:58 10° NNE
YAOGAN 6 3.6 20:59:41 33° NE 20:59:41 33° NE 21:02:19 10° N
Tiangong 1 3.6 21:01:55 10° WSW 21:03:03 12° SW 21:03:03 12° SW
ERS-1 Rocket 3.1 21:03:25 46° ESE 21:04:21 54° ENE 21:09:16 10° N
Abrixas 4.0 21:05:04 10° WNW 21:06:57 31° WSW 21:06:57 31° WSW
Cosmos 1470 2.9 21:12:27 40° SSW 21:13:46 75° W 21:17:46 10° N
USA 186 4.3 21:15:09 13° W 21:15:10 13° W 21:16:17 10° WNW
Cosmos 2151 4.3 21:11:32 10° N 21:13:55 27° NE 21:13:55 27° NE
Cosmos 1340 Rocket 2.7 21:13:02 10° NNW 21:17:05 82° W 21:17:07 82° WSW
Meteor 1-29 4.2 21:14:47 10° N 21:18:05 41° WNW 21:21:00 12° SW
Cosmos 1833 Rocket 2.9 21:13:24 10° NNW 21:18:59 68° WSW 21:21:14 37° S
Terra 4.2 21:21:37 11° NE 21:21:37 11° NE 21:21:56 10° NNE
H-2A R/B (2) 4.2 21:18:54 10° SSW 21:20:59 16° S 21:20:59 16° S
NOAA 11 4.4 21:22:01 50° ENE 21:22:07 50° ENE 21:27:26 10° N
COSMOS 2487 3.7 21:20:07 10° NW 21:23:27 37° WSW 21:23:40 37° WSW
Cosmos 2278 Rocket 4.1 21:18:38 10° WSW 21:23:32 29° NW 21:28:28 10° N
GP-B 4.4 21:19:48 10° SSW 21:23:58 40° W 21:28:09 10° NNW
MetOp-B 4.3 21:24:40 54° ENE 21:24:40 54° ENE 21:29:51 10° N
Helios 1B rocket 4.1 21:22:20 10° N 21:26:04 33° WNW 21:29:46 10° SW
Cosmos 2251 Rocket 3.7 21:21:22 10° NNW 21:26:29 56° ENE 21:26:29 56° ENE
Cosmos 2016 Rocket 3.8 21:24:19 34° S 21:27:13 77° E 21:33:24 10° N
Resurs 01 Rocket 4.5 21:25:47 10° SW 21:28:10 14° W 21:30:34 10° WNW
Cosmos 1733 4.0 21:27:33 45° WSW 21:28:10 51° W 21:31:58 10° N
Meteor 2-17 Rocket 4.3 21:25:50 37° S 21:28:23 77° E 21:34:33 10° N
CZ-3B DEB 3.8 21:23:53 10° W 21:31:39 34° NNW 21:34:48 16° NNE
Cosmos 1725 Rocket 3.9 21:34:40 61° E 21:34:40 61° E 21:40:44 10° NNE
ATLAS 5 CENTAUR R/B 1.9 21:34:18 10° SW 21:39:00 73° NW 21:44:09 10° NNE
Meteor 1-11 4.1 21:38:41 10° N 21:44:04 78° NE 21:44:04 78° NE
SL-08 R/B 4.4 21:46:08 53° S 21:47:49 88° W 21:54:17 10° N
Tsikada Rocket 3.8 21:43:03 10° N 21:49:15 76° E 21:49:15 76° E
Cosmos 2082 Rocket 3.6 21:47:26 10° NW 21:52:26 32° WSW 21:54:34 25° SW
Meteor 1-16 Rocket 4.5 21:58:15 59° SW 21:59:12 70° WNW 22:05:09 10° N
USA 215 3.4 21:52:43 10° NE 21:59:13 70° NW 22:05:42 10° WSW
Lacrosse 5 rocket 3.7 22:05:13 10° NW 22:06:37 20° WNW 22:06:37 20° WNW
ARGOS 3.7 22:10:26 55° NNW 22:10:26 55° NNW 22:14:37 10° NNW
H-2A R/B 3.3 22:24:05 38° N 22:24:05 38° N 22:27:18 10° N
USA 267 3.4 22:32:47 69° NNW 22:32:47 69° NNW 22:38:29 10° NW
SPOT 5 4.4 22:35:43 37° WNW 22:35:43 37° WNW 22:39:35 10° NNW
Lacrosse 5 4.2 22:31:02 10° WNW 22:34:38 19° NNW 22:36:05 17° N
Terra 4.3 23:00:29 18° NNW 23:00:29 18° NNW 23:01:43 10° NNW
